QPF
0.00 0.00 0.00 0.00 0.00 0.00 0.00 0.00 0.00 0.00 0.00 0.00 0.01 0.02 0.03 0.04 0.06 0.08 0.09 0.09 0.08 0.08 0.07 0.05 0.02 0.00 0.00 0.00 0.00 0.00 0.00 0.00 0.00 0.00 0.00 0.00 0.00 0.00 0.00 0.00 0.00 0.00 0.00 0.00
0.00 0.00 0.00 0.00 0.00 0.00 0.00 0.00 0.00 0.00 0.00 0.00 0.01 0.03 0.04 0.05 0.08 0.11 0.13 0.11 0.09 0.08 0.07 0.03 0.01 0.00 0.00 0.00 0.00 0.00 0.00 0.00 0.00 0.00 0.00 0.00 0.00 0.00 0.00 0.00 0.00 0.00 0.00 0.00
0.00 0.00 0.00 0.00 0.00 0.00 0.00 0.00 0.00 0.00 0.00 0.00 0.01 0.02 0.04 0.06 0.08 0.12 0.13 0.11 0.09 0.08 0.05 0.02 0.00 0.00 0.00 0.00 0.00 0.00 0.00 0.00 0.00 0.00 0.00 0.00 0.00 0.00 0.00 0.00 0.00 0.00 0.00 0.00
0.00 0.00 0.00 0.00 0.00 0.00 0.00 0.00 0.00 0.00 0.00 0.00 0.01 0.04 0.06 0.08 0.12 0.15 0.15 0.12 0.09 0.05 0.02 0.01 0.00 0.00 0.00 0.00 0.00 0.00 0.00 0.00 0.00 0.00 0.00 0.00 0.00 0.00 0.00 0.00 0.00 0.00 0.00 0.00
0.00 0.00 0.00 0.00 0.00 0.00 0.00 0.00 0.00 0.00 0.00 0.00 0.01 0.03 0.04 0.05 0.09 0.11 0.11 0.09 0.06 0.02 0.01 0.00 0.00 0.00 0.00 0.00 0.00 0.00 0.00 0.00 0.00 0.00 0.00 0.00 0.00 0.00 0.00 0.00 0.00 0.00 0.00 0.00
0.00 0.00 0.00 0.00 0.00 0.00 0.00 0.00 0.00 0.00 0.00 0.01 0.02 0.04 0.04 0.04 0.05 0.06 0.08 0.07 0.03 0.01 0.00 0.00 0.00 0.00 0.00 0.00 0.00 0.00 0.00 0.00 0.00 0.00 0.00 0.00 0.00 0.00 0.00 0.00 0.00 0.00 0.00 0.00
0.00 0.00 0.00 0.00 0.00 0.00 0.00 0.00 0.00 0.01 0.03 0.05 0.06 0.09 0.10 0.09 0.09 0.11 0.12 0.08 0.03 0.00 0.00 0.00 0.00 0.00 0.00 0.00 0.00 0.00 0.00 0.00 0.00 0.00 0.00 0.00 0.00 0.00 0.00 0.00 0.00 0.00 0.00 0.00
0.00 0.00 0.00 0.00 0.00 0.00 0.00 0.00 0.01 0.02 0.04 0.08 0.13 0.16 0.17 0.16 0.16 0.16 0.12 0.05 0.01 0.00 0.00 0.00 0.00 0.00 0.00 0.00 0.00 0.00 0.00 0.00 0.00 0.00 0.00 0.00 0.00 0.00 0.00 0.00 0.00 0.00 0.00 0.00
0.00 0.00 0.00 0.00 0.00 0.00 0.00 0.01 0.02 0.04 0.10 0.19 0.27 0.28 0.20 0.14 0.12 0.08 0.03 0.01 0.00 0.00 0.00 0.00 0.00 0.00 0.00 0.00 0.00 0.00 0.00 0.00 0.00 0.00 0.00 0.00 0.00 0.00 0.00 0.00 0.00 0.00 0.00 0.00
0.00 0.00 0.00 0.00 0.01 0.01 0.02 0.04 0.05 0.08 0.14 0.21 0.26 0.20 0.10 0.04 0.02 0.01 0.00 0.00 0.00 0.00 0.00 0.00 0.00 0.00 0.00 0.00 0.00 0.00 0.00 0.00 0.00 0.00 0.00 0.00 0.00 0.00 0.00 0.00 0.00 0.00 0.00 0.00
0.00 0.01 0.02 0.02 0.03 0.04 0.07 0.07 0.08 0.10 0.12 0.12 0.10 0.05 0.02 0.01 0.00 0.00 0.00 0.00 0.00 0.00 0.00 0.00 0.00 0.00 0.00 0.00 0.00 0.00 0.00 0.00 0.00 0.00 0.00 0.00 0.00 0.00 0.00 0.00 0.00 0.00 0.00 0.00
0.02 0.03 0.07 0.08 0.08 0.11 0.13 0.13 0.12 0.07 0.05 0.04 0.02 0.00 0.00 0.00 0.00 0.00 0.00 0.00 0.00 0.00 0.00 0.00 0.00 0.00 0.00 0.00 0.00 0.00 0.00 0.00 0.00 0.00 0.00 0.00 0.00 0.00 0.00 0.00 0.00 0.00 0.01 0.01
0.10 0.09 0.14 0.16 0.19 0.24 0.23 0.15 0.07 0.02 0.00 0.00 0.00 0.00 0.00 0.00 0.00 0.00 0.00 0.00 0.00 0.00 0.00 0.00 0.00 0.00 0.00 0.00 0.00 0.00 0.00 0.00 0.00 0.00 0.00 0.00 0.00 0.00 0.00 0.00 0.00 0.00 0.00 0.00
0.19 0.18 0.22 0.24 0.26 0.20 0.12 0.04 0.01 0.00 0.00 0.00 0.00 0.00 0.00 0.00 0.00 0.00 0.00 0.00 0.00 0.00 0.00 0.00 0.00 0.00 0.00 0.00 0.00 0.00 0.00 0.00 0.00 0.00 0.00 0.00 0.00 0.00 0.00 0.00 0.00 0.00 0.00 0.00
0.31 0.26 0.18 0.13 0.08 0.04 0.01 0.00 0.00 0.00 0.00 0.00 0.00 0.00 0.00 0.00 0.00 0.00 0.00 0.00 0.00 0.00 0.00 0.00 0.00 0.00 0.00 0.00 0.00 0.00 0.00 0.00 0.00 0.00 0.00 0.00 0.00 0.00 0.00 0.00 0.01 0.01 0.00 0.00
0.28 0.19 0.07 0.03 0.01 0.00 0.00 0.00 0.00 0.00 0.00 0.00 0.00 0.00 0.00 0.00 0.00 0.00 0.00 0.00 0.00 0.00 0.00 0.00 0.00 0.00 0.00 0.00 0.00 0.00 0.00 0.00 0.00 0.00 0.00 0.00 0.00 0.00 0.00 0.01 0.01 0.01 0.01 0.01
0.12 0.08 0.03 0.01 0.00 0.00 0.00 0.00 0.00 0.00 0.00 0.00 0.00 0.00 0.00 0.00 0.00 0.00 0.00 0.00 0.00 0.00 0.00 0.00 0.00 0.00 0.00 0.00 0.00 0.00 0.00 0.00 0.00 0.00 0.00 0.00 0.00 0.00 0.00 0.00 0.01 0.01 0.01 0.01
0.04 0.02 0.01 0.00 0.00 0.00 0.00 0.00 0.00 0.00 0.00 0.00 0.00 0.00 0.00 0.00 0.00 0.00 0.00 0.00 0.00 0.00 0.00 0.00 0.00 0.00 0.00 0.00 0.00 0.00 0.00 0.00 0.00 0.00 0.00 0.00 0.00 0.00 0.00 0.00 0.00 0.01 0.01 0.01
0.01 0.01 0.00 0.00 0.00 0.00 0.00 0.00 0.00 0.00 0.00 0.00 0.00 0.00 0.00 0.00 0.00 0.00 0.00 0.00 0.00 0.00 0.00 0.00 0.00 0.00 0.00 0.00 0.00 0.00 0.00 0.00 0.00 0.00 0.00 0.00 0.00 0.00 0.00 0.00 0.00 0.00 0.00 0.01
0.00 0.00 0.00 0.00 0.00 0.00 0.00 0.00 0.00 0.00 0.00 0.00 0.00 0.00 0.00 0.00 0.00 0.00 0.00 0.00 0.00 0.00 0.00 0.00 0.00 0.00 0.00 0.00 0.00 0.00 0.00 0.00 0.00 0.00 0.00 0.00 0.00 0.00 0.00 0.00 0.00 0.00 0.00 0.00
0.00 0.00 0.00 0.00 0.00 0.00 0.00 0.00 0.00 0.00 0.00 0.00 0.00 0.00 0.00 0.00 0.00 0.00 0.00 0.00 0.00 0.00 0.00 0.00 0.00 0.00 0.00 0.00 0.00 0.00 0.00 0.00 0.00 0.00 0.00 0.00 0.00 0.00 0.00 0.00 0.00 0.00 0.00 0.00
0.00 0.00 0.00 0.00 0.00 0.00 0.00 0.00 0.00 0.00 0.00 0.00 0.00 0.00 0.00 0.00 0.00 0.00 0.00 0.00 0.00 0.00 0.00 0.00 0.00 0.00 0.00 0.00 0.00 0.00 0.00 0.00 0.00 0.00 0.00 0.00 0.00 0.00 0.00 0.00 0.00 0.00 0.00 0.00
0.00 0.00 0.00 0.00 0.00 0.00 0.00 0.00 0.00 0.00 0.00 0.00 0.00 0.00 0.00 0.00 0.00 0.00 0.00 0.00 0.00 0.00 0.00 0.00 0.00 0.00 0.00 0.00 0.00 0.00 0.00 0.00 0.00 0.00 0.00 0.00 0.00 0.00 0.00 0.00 0.00 0.00 0.00 0.00
0.00 0.00 0.00 0.00 0.00 0.00 0.00 0.00 0.00 0.00 0.00 0.00 0.00 0.00 0.00 0.00 0.00 0.00 0.00 0.00 0.00 0.00 0.00 0.00 0.00 0.00 0.00 0.00 0.00 0.00 0.00 0.00 0.00 0.00 0.00 0.00 0.00 0.00 0.00 0.00 0.00 0.00 0.00 0.00
0.00 0.00 0.00 0.00 0.00 0.00 0.00 0.00 0.00 0.00 0.00 0.00 0.00 0.00 0.00 0.00 0.00 0.00 0.00 0.00 0.00 0.00 0.00 0.00 0.00 0.00 0.00 0.00 0.00 0.00 0.00 0.00 0.00 0.00 0.00 0.00 0.00 0.00 0.00 0.00 0.00 0.00 0.00 0.00
0.00 0.00 0.00 0.00 0.00 0.00 0.00 0.00 0.00 0.00 0.00 0.00 0.00 0.00 0.00 0.00 0.00 0.00 0.00 0.00 0.00 0.00 0.00 0.00 0.00 0.00 0.00 0.00 0.00 0.00 0.00 0.00 0.00 0.00 0.00 0.00 0.00 0.00 0.00 0.00 0.00 0.00 0.00 0.00
0.00 0.00 0.00 0.00 0.00 0.00 0.00 0.00 0.00 0.00 0.00 0.00 0.00 0.00 0.00 0.00 0.00 0.00 0.00 0.00 0.00 0.00 0.00 0.00 0.00 0.00 0.00 0.00 0.00 0.00 0.00 0.00 0.00 0.00 0.00 0.00 0.00 0.00 0.00 0.00 0.00 0.00 0.00 0.00
MSLP
1011.90 1011.69 1011.53 1011.39 1011.26 1011.12 1010.93 1010.68 1010.38 1010.07 1009.78 1009.58 1009.53 1009.69 1010.09 1010.74 1011.61 1012.67 1013.85 1015.06 1016.25 1017.33 1018.28 1019.07 1019.70 1020.17 1020.52 1020.75 1020.89 1020.96 1020.95 1020.88 1020.75 1020.56 1020.34 1020.10 1019.86 1019.65 1019.47 1019.34 1019.26 1019.20 1019.15 1019.10
1012.52 1012.22 1011.90 1011.56 1011.19 1010.80 1010.41 1010.02 1009.65 1009.36 1009.17 1009.14 1009.29 1009.67 1010.26 1011.07 1012.04 1013.14 1014.30 1015.46 1016.57 1017.57 1018.43 1019.16 1019.74 1020.19 1020.52 1020.74 1020.87 1020.92 1020.89 1020.78 1020.62 1020.41 1020.16 1019.91 1019.67 1019.47 1019.32 1019.21 1019.15 1019.12 1019.09 1019.04
1013.16 1012.80 1012.36 1011.85 1011.29 1010.72 1010.17 1009.67 1009.28 1009.02 1008.94 1009.06 1009.40 1009.95 1010.71 1011.62 1012.66 1013.76 1014.88 1015.96 1016.96 1017.85 1018.62 1019.26 1019.78 1020.19 1020.50 1020.70 1020.83 1020.87 1020.83 1020.72 1020.54 1020.33 1020.08 1019.84 1019.62 1019.43 1019.30 1019.22 1019.17 1019.15 1019.11 1019.05
1013.82 1013.41 1012.88 1012.25 1011.57 1010.87 1010.23 1009.69 1009.30 1009.10 1009.12 1009.37 1009.86 1010.55 1011.41 1012.39 1013.44 1014.51 1015.55 1016.53 1017.40 1018.17 1018.82 1019.37 1019.82 1020.18 1020.46 1020.66 1020.78 1020.82 1020.79 1020.69 1020.53 1020.34 1020.11 1019.90 1019.70 1019.54 1019.43 1019.36 1019.32 1019.28 1019.23 1019.13
1014.47 1014.02 1013.42 1012.72 1011.97 1011.22 1010.54 1010.00 1009.65 1009.52 1009.64 1010.01 1010.60 1011.39 1012.30 1013.31 1014.33 1015.34 1016.28 1017.12 1017.87 1018.50 1019.04 1019.50 1019.87 1020.18 1020.43 1020.62 1020.74 1020.80 1020.80 1020.73 1020.60 1020.44 1020.26 1020.08 1019.92 1019.79 1019.69 1019.63 1019.57 1019.51 1019.42 1019.27
1015.06 1014.56 1013.92 1013.19 1012.42 1011.67 1011.01 1010.52 1010.23 1010.19 1010.41 1010.86 1011.53 1012.36 1013.30 1014.28 1015.25 1016.16 1016.98 1017.70 1018.32 1018.83 1019.26 1019.62 1019.94 1020.20 1020.43 1020.61 1020.75 1020.83 1020.86 1020.83 1020.76 1020.65 1020.52 1020.38 1020.26 1020.15 1020.07 1019.99 1019.91 1019.81 1019.66 1019.44
1015.50 1014.96 1014.30 1013.57 1012.82 1012.11 1011.53 1011.11 1010.92 1010.98 1011.28 1011.80 1012.52 1013.37 1014.29 1015.22 1016.11 1016.92 1017.63 1018.23 1018.73 1019.13 1019.47 1019.76 1020.02 1020.25 1020.47 1020.66 1020.81 1020.93 1021.00 1021.02 1021.00 1020.95 1020.87 1020.78 1020.69 1020.60 1020.52 1020.42 1020.30 1020.15 1019.93 1019.63
1015.74 1015.16 1014.49 1013.78 1013.09 1012.47 1011.98 1011.68 1011.61 1011.76 1012.14 1012.73 1013.47 1014.31 1015.19 1016.06 1016.86 1017.58 1018.18 1018.68 1019.08 1019.40 1019.67 1019.91 1020.13 1020.35 1020.56 1020.76 1020.94 1021.09 1021.21 1021.29 1021.33 1021.33 1021.30 1021.24 1021.18 1021.10 1020.99 1020.87 1020.70 1020.49 1020.20 1019.82
1015.72 1015.11 1014.46 1013.81 1013.20 1012.69 1012.34 1012.17 1012.21 1012.47 1012.93 1013.56 1014.32 1015.14 1015.97 1016.76 1017.49 1018.11 1018.63 1019.04 1019.37 1019.64 1019.86 1020.07 1020.28 1020.49 1020.71 1020.93 1021.14 1021.33 1021.49 1021.62 1021.70 1021.75 1021.76 1021.73 1021.68 1021.58 1021.46 1021.29 1021.07 1020.78 1020.42 1019.98
1015.46 1014.85 1014.23 1013.66 1013.16 1012.80 1012.59 1012.56 1012.74 1013.10 1013.63 1014.29 1015.05 1015.84 1016.62 1017.34 1017.99 1018.54 1018.98 1019.34 1019.62 1019.85 1020.06 1020.26 1020.46 1020.68 1020.92 1021.16 1021.40 1021.62 1021.82 1021.99 1022.12 1022.19 1022.23 1022.21 1022.15 1022.03 1021.86 1021.64 1021.35 1021.00 1020.58 1020.07
1015.02 1014.44 1013.89 1013.42 1013.06 1012.85 1012.80 1012.92 1013.22 1013.67 1014.26 1014.95 1015.69 1016.45 1017.17 1017.83 1018.40 1018.89 1019.28 1019.59 1019.85 1020.06 1020.26 1020.46 1020.68 1020.91 1021.17 1021.43 1021.70 1021.95 1022.18 1022.38 1022.53 1022.63 1022.67 1022.65 1022.56 1022.41 1022.18 1021.90 1021.54 1021.13 1020.64 1020.09
1014.52 1014.00 1013.55 1013.22 1013.01 1012.96 1013.06 1013.32 1013.73 1014.27 1014.90 1015.59 1016.31 1017.02 1017.68 1018.27 1018.78 1019.21 1019.56 1019.84 1020.08 1020.29 1020.50 1020.71 1020.93 1021.18 1021.46 1021.74 1022.03 1022.30 1022.56 1022.77 1022.94 1023.04 1023.07 1023.03 1022.91 1022.70 1022.42 1022.07 1021.65 1021.17 1020.63 1020.05
1014.09 1013.67 1013.35 1013.17 1013.12 1013.22 1013.47 1013.86 1014.36 1014.95 1015.60 1016.29 1016.96 1017.61 1018.20 1018.72 1019.17 1019.54 1019.86 1020.11 1020.34 1020.55 1020.76 1020.98 1021.22 1021.49 1021.77 1022.07 1022.37 1022.66 1022.93 1023.15 1023.32 1023.42 1023.44 1023.37 1023.21 1022.95 1022.61 1022.19 1021.71 1021.17 1020.59 1019.98
1013.83 1013.54 1013.38 1013.35 1013.46 1013.72 1014.09 1014.58 1015.14 1015.76 1016.41 1017.05 1017.67 1018.25 1018.76 1019.21 1019.59 1019.91 1020.18 1020.42 1020.64 1020.85 1021.06 1021.30 1021.55 1021.82 1022.12 1022.42 1022.73 1023.03 1023.30 1023.53 1023.70 1023.79 1023.79 1023.69 1023.49 1023.18 1022.79 1022.32 1021.78 1021.20 1020.59 1019.97
1013.83 1013.69 1013.68 1013.80 1014.06 1014.44 1014.92 1015.47 1016.07 1016.69 1017.30 1017.89 1018.44 1018.93 1019.36 1019.73 1020.05 1020.32 1020.55 1020.77 1020.98 1021.19 1021.41 1021.65 1021.91 1022.19 1022.49 1022.80 1023.11 1023.41 1023.68 1023.90 1024.07 1024.15 1024.14 1024.02 1023.79 1023.46 1023.03 1022.52 1021.95 1021.34 1020.71 1020.09
1014.07 1014.08 1014.22 1014.49 1014.87 1015.35 1015.90 1016.48 1017.08 1017.67 1018.23 1018.75 1019.21 1019.62 1019.96 1020.26 1020.51 1020.74 1020.95 1021.15 1021.35 1021.56 1021.79 1022.04 1022.30 1022.59 1022.89 1023.20 1023.51 1023.80 1024.07 1024.29 1024.45 1024.53 1024.51 1024.38 1024.15 1023.80 1023.36 1022.84 1022.26 1021.64 1021.02 1020.40
1014.51 1014.66 1014.93 1015.31 1015.79 1016.34 1016.92 1017.51 1018.09 1018.63 1019.13 1019.56 1019.94 1020.26 1020.53 1020.76 1020.97 1021.16 1021.35 1021.54 1021.74 1021.96 1022.20 1022.45 1022.73 1023.01 1023.31 1023.62 1023.92 1024.21 1024.47 1024.69 1024.84 1024.93 1024.91 1024.80 1024.57 1024.25 1023.82 1023.32 1022.75 1022.15 1021.55 1020.95
1015.04 1015.31 1015.69 1016.17 1016.71 1017.29 1017.89 1018.46 1018.99 1019.48 1019.90 1020.26 1020.56 1020.80 1021.02 1021.20 1021.38 1021.55 1021.73 1021.93 1022.14 1022.38 1022.63 1022.89 1023.17 1023.46 1023.75 1024.05 1024.34 1024.62 1024.87 1025.09 1025.25 1025.34 1025.34 1025.26 1025.06 1024.78 1024.39 1023.94 1023.42 1022.86 1022.29 1021.73
1015.58 1015.94 1016.40 1016.94 1017.51 1018.11 1018.68 1019.22 1019.71 1020.13 1020.49 1020.78 1021.02 1021.22 1021.39 1021.55 1021.72 1021.90 1022.09 1022.31 1022.54 1022.80 1023.07 1023.34 1023.63 1023.91 1024.20 1024.49 1024.76 1025.03 1025.27 1025.48 1025.64 1025.75 1025.78 1025.73 1025.59 1025.36 1025.05 1024.66 1024.21 1023.72 1023.20 1022.69
1016.05 1016.49 1017.00 1017.56 1018.14 1018.72 1019.27 1019.76 1020.20 1020.57 1020.87 1021.12 1021.32 1021.50 1021.66 1021.83 1022.01 1022.21 1022.43 1022.67 1022.94 1023.22 1023.51 1023.80 1024.09 1024.37 1024.65 1024.91 1025.17 1025.42 1025.65 1025.85 1026.02 1026.14 1026.20 1026.20 1026.12 1025.96 1025.72 1025.42 1025.05 1024.64 1024.19 1023.73
1016.45 1016.93 1017.46 1018.02 1018.59 1019.14 1019.65 1020.10 1020.49 1020.82 1021.09 1021.31 1021.51 1021.68 1021.86 1022.05 1022.26 1022.49 1022.75 1023.03 1023.33 1023.63 1023.94 1024.24 1024.53 1024.81 1025.08 1025.33 1025.57 1025.79 1026.00 1026.20 1026.36 1026.50 1026.59 1026.63 1026.61 1026.52 1026.37 1026.15 1025.87 1025.54 1025.17 1024.76
1016.80 1017.30 1017.83 1018.38 1018.91 1019.42 1019.89 1020.30 1020.65 1020.95 1021.21 1021.42 1021.63 1021.82 1022.03 1022.25 1022.50 1022.78 1023.07 1023.39 1023.72 1024.05 1024.37 1024.68 1024.97 1025.24 1025.49 1025.72 1025.94 1026.15 1026.34 1026.53 1026.69 1026.84 1026.95 1027.03 1027.06 1027.04 1026.96 1026.82 1026.62 1026.37 1026.06 1025.71
1017.17 1017.66 1018.17 1018.69 1019.18 1019.65 1020.07 1020.44 1020.76 1021.05 1021.30 1021.52 1021.74 1021.97 1022.22 1022.48 1022.77 1023.08 1023.42 1023.77 1024.12 1024.46 1024.80 1025.11 1025.40 1025.66 1025.90 1026.12 1026.32 1026.51 1026.69 1026.86 1027.02 1027.17 1027.30 1027.40 1027.47 1027.50 1027.47 1027.40 1027.26 1027.08 1026.83 1026.52
1017.61 1018.08 1018.56 1019.03 1019.48 1019.90 1020.27 1020.61 1020.91 1021.18 1021.43 1021.67 1021.92 1022.18 1022.45 1022.75 1023.08 1023.43 1023.79 1024.16 1024.52 1024.88 1025.22 1025.53 1025.82 1026.07 1026.31 1026.52 1026.71 1026.89 1027.06 1027.23 1027.39 1027.54 1027.67 1027.79 1027.88 1027.93 1027.94 1027.90 1027.82 1027.67 1027.46 1027.20
1018.15 1018.60 1019.03 1019.45 1019.85 1020.21 1020.55 1020.85 1021.13 1021.39 1021.64 1021.90 1022.16 1022.45 1022.75 1023.08 1023.43 1023.80 1024.17 1024.55 1024.93 1025.29 1025.62 1025.94 1026.23 1026.49 1026.72 1026.94 1027.13 1027.31 1027.49 1027.65 1027.81 1027.96 1028.09 1028.21 1028.30 1028.36 1028.38 1028.37 1028.30 1028.18 1028.00 1027.77
1018.78 1019.19 1019.58 1019.95 1020.30 1020.61 1020.90 1021.17 1021.43 1021.68 1021.93 1022.20 1022.48 1022.78 1023.10 1023.44 1023.80 1024.18 1024.56 1024.94 1025.31 1025.67 1026.01 1026.33 1026.63 1026.90 1027.15 1027.38 1027.59 1027.78 1027.97 1028.14 1028.30 1028.44 1028.57 1028.68 1028.76 1028.82 1028.83 1028.82 1028.75 1028.64 1028.48 1028.26
1019.42 1019.80 1020.15 1020.48 1020.78 1021.05 1021.31 1021.55 1021.78 1022.02 1022.27 1022.53 1022.81 1023.12 1023.44 1023.79 1024.15 1024.52 1024.90 1025.28 1025.65 1026.01 1026.36 1026.69 1027.00 1027.30 1027.57 1027.82 1028.06 1028.28 1028.48 1028.67 1028.83 1028.98 1029.10 1029.20 1029.26 1029.30 1029.30 1029.27 1029.20 1029.09 1028.93 1028.73
Thickness
5626 5634 5640 5646 5651 5656 5655 5650 5646 5654 5660 5668 5667 5668 5665 5659 5649 5639 5629 5618 5608 5595 5584 5575 5565 5556 5550 5545 5540 5533 5526 5521 5516 5512 5506 5501 5497 5493 5488 5482 5476 5470 5463 5457
5613 5624 5625 5631 5641 5646 5650 5654 5653 5654 5657 5665 5661 5656 5650 5645 5639 5632 5622 5611 5597 5584 5575 5566 5556 5546 5539 5533 5528 5521 5516 5512 5508 5504 5499 5495 5491 5486 5480 5475 5469 5461 5454 5446
5588 5603 5611 5611 5633 5640 5644 5649 5648 5644 5653 5649 5648 5649 5647 5641 5634 5625 5614 5601 5588 5576 5567 5558 5548 5538 5529 5524 5517 5512 5509 5505 5500 5496 5492 5488 5484 5478 5472 5467 5459 5451 5442 5433
5571 5587 5585 5604 5625 5630 5630 5635 5638 5639 5640 5637 5637 5630 5625 5621 5615 5608 5599 5587 5574 5563 5554 5545 5537 5528 5521 5515 5510 5506 5501 5496 5492 5488 5484 5480 5474 5467 5461 5454 5445 5436 5428 5419
5555 5563 5573 5595 5607 5606 5609 5616 5625 5623 5619 5615 5615 5608 5601 5602 5598 5589 5580 5569 5558 5549 5540 5532 5525 5519 5513 5508 5503 5498 5494 5489 5484 5479 5474 5468 5461 5453 5445 5437 5429 5421 5413 5406
5542 5551 5556 5575 5586 5591 5596 5595 5607 5606 5603 5600 5602 5594 5582 5579 5575 5566 5557 5549 5541 5533 5526 5520 5515 5510 5505 5500 5495 5490 5485 5480 5474 5469 5463 5455 5446 5438 5429 5422 5414 5407 5400 5393
5528 5532 5545 5560 5566 5579 5572 5571 5576 5584 5585 5583 5579 5576 5565 5560 5553 5546 5539 5531 5525 5519 5514 5510 5506 5502 5497 5492 5487 5482 5477 5471 5464 5457 5450 5441 5433 5424 5416 5409 5402 5395 5388 5382
5511 5519 5531 5547 5550 5550 5550 5552 5557 5560 5560 5559 5557 5553 5548 5544 5537 5531 5523 5517 5512 5509 5506 5503 5500 5496 5491 5485 5480 5475 5468 5460 5453 5447 5440 5430 5421 5412 5405 5398 5391 5384 5378 5374
5509 5516 5530 5533 5537 5542 5543 5544 5545 5545 5547 5548 5545 5540 5534 5529 5524 5519 5513 5507 5505 5503 5501 5499 5495 5489 5485 5479 5473 5465 5458 5450 5444 5436 5427 5419 5411 5403 5396 5388 5382 5376 5372 5367
5504 5516 5525 5531 5537 5541 5543 5541 5540 5540 5540 5540 5534 5528 5522 5518 5512 5507 5504 5501 5500 5499 5497 5493 5487 5483 5478 5471 5464 5457 5450 5442 5434 5425 5416 5409 5402 5395 5387 5380 5374 5370 5365 5361
5504 5514 5521 5530 5532 5535 5536 5536 5535 5532 5531 5528 5525 5520 5515 5509 5504 5500 5497 5496 5495 5493 5490 5486 5481 5476 5470 5463 5457 5451 5442 5433 5423 5415 5408 5401 5394 5387 5380 5373 5367 5362 5358 5355
5503 5512 5515 5521 5527 5529 5529 5527 5526 5524 5520 5518 5515 5510 5505 5500 5496 5494 5493 5491 5489 5487 5484 5480 5475 5469 5462 5457 5452 5444 5434 5424 5415 5408 5401 5393 5386 5380 5374 5368 5363 5358 5355 5352
5505 5511 5514 5517 5520 5521 5520 5519 5518 5517 5514 5509 5504 5501 5496 5492 5490 5489 5488 5487 5485 5483 5478 5473 5467 5462 5456 5451 5445 5435 5425 5416 5408 5400 5392 5385 5378 5372 5368 5364 5361 5357 5354 5353
5506 5508 5509 5511 5511 5511 5512 5511 5509 5507 5503 5500 5496 5493 5490 5487 5485 5484 5483 5482 5480 5476 5471 5467 5463 5456 5450 5444 5437 5427 5418 5410 5400 5391 5383 5376 5370 5366 5363 5360 5357 5355 5354 5353
5503 5505 5504 5504 5504 5503 5504 5504 5502 5498 5495 5492 5490 5487 5484 5482 5480 5480 5479 5476 5474 5471 5467 5464 5459 5451 5445 5439 5431 5421 5411 5401 5392 5383 5375 5369 5365 5362 5359 5356 5354 5352 5352 5352
5496 5498 5499 5499 5499 5498 5499 5498 5495 5491 5489 5487 5484 5482 5480 5479 5477 5475 5473 5472 5470 5467 5464 5460 5455 5448 5441 5434 5425 5415 5405 5395 5385 5375 5368 5362 5359 5357 5356 5354 5352 5350 5349 5348
5495 5494 5494 5495 5494 5493 5492 5491 5489 5487 5485 5483 5480 5479 5478 5475 5472 5470 5468 5467 5466 5463 5461 5458 5452 5445 5437 5428 5419 5408 5398 5387 5378 5369 5362 5357 5354 5353 5352 5351 5349 5347 5346 5345
5495 5494 5495 5494 5492 5490 5487 5486 5484 5483 5480 5479 5478 5477 5475 5472 5469 5466 5465 5464 5464 5462 5459 5456 5450 5441 5432 5424 5414 5403 5391 5380 5371 5363 5357 5353 5351 5349 5349 5348 5346 5344 5343 5343
5494 5493 5492 5490 5489 5487 5484 5481 5479 5477 5477 5477 5476 5473 5471 5470 5468 5466 5465 5465 5465 5462 5457 5453 5446 5438 5429 5420 5409 5398 5386 5376 5367 5360 5355 5351 5349 5347 5346 5345 5343 5341 5339 5339
5491 5491 5489 5486 5484 5482 5479 5477 5475 5474 5474 5474 5472 5471 5470 5469 5468 5467 5465 5463 5461 5460 5456 5450 5444 5436 5427 5417 5406 5394 5383 5374 5366 5359 5355 5351 5349 5346 5344 5342 5340 5337 5336 5335
5488 5487 5486 5482 5479 5478 5476 5475 5473 5472 5472 5473 5472 5470 5469 5468 5468 5467 5466 5464 5461 5459 5454 5449 5443 5434 5425 5415 5404 5392 5382 5373 5366 5360 5356 5352 5349 5345 5342 5339 5337 5334 5332 5331
5484 5483 5481 5479 5476 5473 5472 5472 5472 5471 5471 5470 5470 5470 5469 5468 5467 5466 5466 5464 5461 5458 5453 5448 5441 5433 5424 5413 5402 5392 5383 5375 5368 5363 5358 5353 5349 5345 5341 5338 5335 5333 5331 5329
5477 5478 5477 5475 5473 5470 5469 5470 5471 5470 5469 5469 5469 5470 5470 5469 5468 5468 5466 5463 5461 5458 5453 5447 5440 5432 5423 5413 5403 5394 5386 5378 5371 5365 5359 5354 5350 5346 5342 5339 5336 5333 5331 5329
5471 5472 5471 5469 5468 5467 5466 5467 5467 5468 5468 5468 5469 5470 5470 5468 5466 5467 5467 5465 5462 5458 5452 5445 5439 5431 5423 5414 5406 5398 5390 5382 5375 5368 5362 5356 5351 5347 5344 5340 5337 5335 5333 5331
5465 5465 5464 5463 5464 5463 5463 5463 5464 5464 5465 5465 5467 5469 5470 5472 5471 5468 5466 5464 5461 5457 5451 5444 5439 5432 5424 5417 5410 5402 5395 5387 5380 5373 5367 5361 5355 5351 5347 5343 5340 5338 5336 5334
5458 5458 5459 5461 5461 5460 5461 5461 5461 5460 5462 5463 5464 5466 5468 5470 5470 5468 5466 5464 5460 5456 5451 5445 5439 5434 5427 5421 5415 5408 5401 5393 5386 5379 5373 5367 5361 5357 5352 5349 5346 5343 5340 5339
5451 5451 5451 5451 5453 5456 5458 5460 5460 5459 5460 5463 5464 5464 5466 5467 5468 5467 5465 5463 5459 5456 5451 5446 5441 5436 5431 5426 5420 5413 5407 5400 5393 5387 5380 5375 5369 5365 5360 5356 5353 5350 5347 5345